Location: Artiguedieu
(43.5000°N, 0.5454°E)
Time: 09:53:23
(UTC+00:00)

Explorer 7 - Pass Details

Date: 01 August 2021
Orbit: 484 x 676 km, 50.3° (Epoch: 22 September)

Event Time Altitude Azimuth Distance (km) Brightness Sun altitude
Rises 08:34:19 0° 294° (WNW) 2,640 9.8 39.2°
Reaches altitude 10° 08:36:37 10° 304° (NW) 1,780 9.1 39.6°
Maximum altitude 08:40:21 35° 11° (N) 906 8.3 40.3°
Drops below altitude 10° 08:44:19 10° 78° (ENE) 1,886 10.5 41.0°
Sets 08:46:48 0° 87° (E) 2,823 11.2 41.4°
